Weather History for LFYR - November, 2012

Change the Weather History Date:

Tuesday, November 6, 2012

  Actual Average (LFOT) Record (LFOT)
Temperature  
Mean Temperature 42 °F -  
Max Temperature 51 °F 53 °F 62 °F (2003)
Min Temperature 30 °F 41 °F 32 °F (2006)
Degree Days  
Heating Degree Days 24    
Moisture  
Dew Point 38 °F    
Average Humidity 88    
Maximum Humidity 100    
Minimum Humidity 54    
Precipitation  
Precipitation 0.00 in - - ()
Sea Level Pressure  
Sea Level Pressure 30.15 in    
Wind  
Wind Speed 2 mph ()    
Max Wind Speed 8 mph    
Max Gust Speed -    
Visibility 6.2 miles    
Events Rain    
Averages and records for this station are not official NWS values.
T = Trace of Precipitation, MM = Missing Value Source: Averaged Metar Reports

Daily Weather History Graph

Daily Weather History Graph

Search for Another Location

Airport or City:

Trip Planner

Search our weather history database for the weather conditions in past years. The results will help you decide how hot, cold, wet, or windy it might be!

Date:

Astronomy

Nov. 06, 2012 Rise Set
Actual Time 7:44 AM CET 5:28 PM CET
Civil Twilight 7:11 AM CET 6:01 PM CET
Nautical Twilight 6:35 AM CET 6:37 PM CET
Astronomical Twilight 5:59 AM CET 7:13 PM CET
Moon 11:55 PM CET (11/6) 1:26 PM CET (11/6)
Length of Visible Light 10h 49m
Length of Day
9h 44m
Waning Gibbous, 56% of the Moon is Illuminated
Nov 6
Waning Gibbous
Nov 7
Last Quarter
Nov 13
New
Nov 20
First Quarter
Nov 28
Full

Hourly Weather History & Observations

Time (CET) Temp. Windchill Dew Point Humidity Pressure Visibility Wind Dir Wind Speed Gust Speed Precip Events Conditions
12:00 AM 42.8 °F - 41.0 °F 93% 29.92 in - Calm Calm - N/A   Unknown
1:00 AM 41.0 °F - 41.0 °F 100% 29.95 in - Calm Calm - N/A   Unknown
2:00 AM 41.0 °F - 39.2 °F 93% 29.95 in - Calm Calm - N/A   Unknown
3:00 AM 41.0 °F - 41.0 °F 100% 29.95 in - SSW 1.2 mph - N/A   Unknown
4:00 AM 41.0 °F - 41.0 °F 100% 29.95 in - Variable 1.2 mph - N/A   Unknown
5:00 AM 41.0 °F - 41.0 °F 100% 29.98 in - Calm Calm - N/A   Unknown
6:00 AM 42.8 °F 41.1 °F 41.0 °F 93% 30.01 in 6.2 mi North 3.5 mph - N/A Rain Light Rain
7:00 AM 42.8 °F 40.1 °F 41.0 °F 93% 30.04 in 6.2 mi NNE 4.6 mph - N/A   Mostly Cloudy
8:00 AM 42.8 °F 41.1 °F 41.0 °F 93% 30.06 in 6.2 mi Variable 3.5 mph - N/A   Mostly Cloudy
9:00 AM 42.8 °F 40.1 °F 41.0 °F 93% 30.12 in 6.2 mi NNE 4.6 mph - N/A   Partly Cloudy
10:00 AM 44.6 °F 40.7 °F 41.0 °F 87% 30.15 in 6.2 mi NNE 6.9 mph - N/A   Scattered Clouds
11:00 AM 46.4 °F 43.5 °F 42.8 °F 87% 30.18 in 6.2 mi NNE 5.8 mph - N/A   Partly Cloudy
1:00 PM 51.8 °F - 39.2 °F 62% 30.21 in 6.2 mi North 6.9 mph - N/A   Scattered Clouds
2:00 PM 50.0 °F - 37.4 °F 62% 30.21 in 6.2 mi NNW 5.8 mph - N/A   Scattered Clouds
3:00 PM 50.0 °F - 37.4 °F 62% 30.24 in 6.2 mi NNW 5.8 mph - N/A   Scattered Clouds
4:00 PM 51.8 °F - 35.6 °F 54% 30.24 in 6.2 mi North 8.1 mph - N/A   Scattered Clouds
5:00 PM 50.0 °F - 37.4 °F 62% 30.27 in - NW 3.5 mph - N/A   Unknown
6:00 PM 41.0 °F - 37.4 °F 87% 30.27 in - Calm Calm - N/A   Unknown
7:00 PM 35.6 °F - 35.6 °F 100% 30.30 in - Calm Calm - N/A   Unknown
8:00 PM 33.8 °F - 33.8 °F 100% 30.33 in - Calm Calm - N/A   Unknown
9:00 PM 32.0 °F - 32.0 °F 100% 30.33 in - Calm Calm - N/A   Unknown
10:00 PM 32.0 °F - 32.0 °F 100% 30.36 in - Calm Calm - N/A   Unknown
11:00 PM 30.2 °F - 30.2 °F 100% 30.36 in - Calm Calm - N/A   Unknown